Time,TemperatureF,DewpointF,PressureIn,WindDirection,WindDirectionDegrees,WindSpeedMPH,WindSpeedGustMPH,Humidity,HourlyPrecipIn,Conditions,Clouds,dailyrainin,SoftwareType,DateUTC
2013-01-19 00:01:00,27.1,11.8,30.10,SW,222,4.1,14.5,52,0.00,,,0.00,WUHU21623XXSP,2013-01-19 05:01:00,
2013-01-19 00:02:00,27.1,11.8,30.10,South,180,4.5,14.5,52,0.00,,,0.00,WUHU21623XXSP,2013-01-19 05:02:00,
2013-01-19 00:07:00,27.3,11.9,30.09,South,173,5.4,11.4,52,0.00,,,0.00,WUHU21623XXSP,2013-01-19 05:07:00,
2013-01-19 00:12:00,27.3,11.9,30.09,South,180,7.4,11.4,52,0.00,,,0.00,WUHU21623XXSP,2013-01-19 05:12:00,
2013-01-19 00:17:00,27.3,11.9,30.09,South,176,6.3,10.5,52,0.00,,,0.00,WUHU21623XXSP,2013-01-19 05:17:00,
2013-01-19 00:22:00,27.5,12.1,30.09,SSE,157,6.7,11.2,52,0.00,,,0.00,WUHU21623XXSP,2013-01-19 05:22:00,
2013-01-19 00:27:00,27.5,12.1,30.09,SSE,157,8.9,13.4,52,0.00,,,0.00,WUHU21623XXSP,2013-01-19 05:27:00,
2013-01-19 00:32:00,27.7,12.3,30.08,SSE,157,7.8,13.4,52,0.00,,,0.00,WUHU21623XXSP,2013-01-19 05:32:00,
2013-01-19 00:37:00,28.0,12.6,30.08,SW,225,5.6,13.4,52,0.00,,,0.00,WUHU21623XXSP,2013-01-19 05:37:00,
2013-01-19 00:42:00,28.0,12.6,30.08,South,184,6.3,13.4,52,0.00,,,0.00,WUHU21623XXSP,2013-01-19 05:42:00,
2013-01-19 00:47:00,28.0,12.6,30.08,SSW,201,5.3,12.1,52,0.00,,,0.00,WUHU21623XXSP,2013-01-19 05:47:00,
2013-01-19 00:52:00,28.2,12.8,30.08,SSW,202,9.2,11.9,52,0.00,,,0.00,WUHU21623XXSP,2013-01-19 05:52:00,
2013-01-19 00:58:00,28.4,13.0,30.07,SSW,201,5.6,11.9,52,0.00,,,0.00,WUHU21623XXSP,2013-01-19 05:58:00,
2013-01-19 01:03:00,28.6,12.7,30.06,SW,225,5.8,12.8,51,0.00,,,0.00,WUHU21623XXSP,2013-01-19 06:03:00,
2013-01-19 01:08:00,28.8,12.9,30.06,SW,225,6.9,12.8,51,0.00,,,0.00,WUHU21623XXSP,2013-01-19 06:08:00,
2013-01-19 01:13:00,28.9,13.0,30.05,SE,135,8.1,14.1,51,0.00,,,0.00,WUHU21623XXSP,2013-01-19 06:13:00,
2013-01-19 01:19:00,28.9,13.0,30.05,SW,215,4.6,16.3,51,0.00,,,0.00,WUHU21623XXSP,2013-01-19 06:19:00,
2013-01-19 01:24:00,28.9,13.0,30.06,South,180,5.6,16.3,51,0.00,,,0.00,WUHU21623XXSP,2013-01-19 06:24:00,
2013-01-19 01:29:00,29.1,12.7,30.05,South,191,5.1,12.1,50,0.00,,,0.00,WUHU21623XXSP,2013-01-19 06:29:00,
2013-01-19 01:34:00,29.1,12.7,30.06,SSW,213,5.2,11.4,50,0.00,,,0.00,WUHU21623XXSP,2013-01-19 06:34:00,
2013-01-19 01:39:00,29.5,13.1,30.06,SSW,195,6.1,18.6,50,0.00,,,0.00,WUHU21623XXSP,2013-01-19 06:39:00,
2013-01-19 01:44:00,29.7,13.3,30.06,WSW,247,4.0,18.6,50,0.00,,,0.00,WUHU21623XXSP,2013-01-19 06:44:00,
2013-01-19 01:49:00,29.8,12.9,30.06,WSW,240,6.6,12.5,49,0.00,,,0.00,WUHU21623XXSP,2013-01-19 06:49:00,
2013-01-19 01:54:00,30.0,13.5,30.06,SW,222,4.5,12.5,50,0.00,,,0.00,WUHU21623XXSP,2013-01-19 06:54:00,
2013-01-19 01:59:00,30.0,13.1,30.06,WSW,247,8.1,12.8,49,0.00,,,0.00,WUHU21623XXSP,2013-01-19 06:59:00,
2013-01-19 02:04:00,30.4,12.9,30.06,SW,223,3.3,12.8,48,0.00,,,0.00,WUHU21623XXSP,2013-01-19 07:04:00,
2013-01-19 02:09:00,30.4,13.4,30.05,SW,225,10.7,11.4,49,0.00,,,0.00,WUHU21623XXSP,2013-01-19 07:09:00,
2013-01-19 02:14:00,30.6,13.6,30.06,SW,224,9.2,21.9,49,0.00,,,0.00,WUHU21623XXSP,2013-01-19 07:14:00,
2013-01-19 02:19:00,30.7,13.2,30.05,WSW,239,6.8,21.9,48,0.00,,,0.00,WUHU21623XXSP,2013-01-19 07:19:00,
2013-01-19 02:24:00,30.7,13.2,30.05,SW,232,7.5,16.3,48,0.00,,,0.00,WUHU21623XXSP,2013-01-19 07:24:00,
2013-01-19 02:29:00,30.7,13.2,30.05,West,270,12.3,14.8,48,0.00,,,0.00,WUHU21623XXSP,2013-01-19 07:29:00,
2013-01-19 02:34:00,30.9,12.9,30.04,SSW,207,7.1,13.9,47,0.00,,,0.00,WUHU21623XXSP,2013-01-19 07:34:00,
2013-01-19 02:39:00,30.9,12.9,30.05,SW,224,6.6,19.0,47,0.00,,,0.00,WUHU21623XXSP,2013-01-19 07:39:00,
2013-01-19 02:44:00,30.9,12.4,30.05,SW,230,10.0,19.0,46,0.00,,,0.00,WUHU21623XXSP,2013-01-19 07:44:00,
2013-01-19 02:49:00,30.9,12.9,30.05,SSW,207,5.8,18.3,47,0.00,,,0.00,WUHU21623XXSP,2013-01-19 07:49:00,
2013-01-19 02:54:00,30.9,12.9,30.05,SW,219,7.4,18.3,47,0.00,,,0.00,WUHU21623XXSP,2013-01-19 07:54:00,
2013-01-19 02:59:00,31.1,13.1,30.04,SSW,202,10.3,18.3,47,0.00,,,0.00,WUHU21623XXSP,2013-01-19 07:59:00,
2013-01-19 03:04:00,31.1,12.6,30.04,SSW,202,6.3,17.9,46,0.00,,,0.00,WUHU21623XXSP,2013-01-19 08:04:00,
2013-01-19 03:09:00,31.3,12.8,30.03,SSW,207,6.4,17.9,46,0.00,,,0.00,WUHU21623XXSP,2013-01-19 08:09:00,
2013-01-19 03:14:00,31.6,13.1,30.03,WSW,247,8.9,12.8,46,0.00,,,0.00,WUHU21623XXSP,2013-01-19 08:14:00,
2013-01-19 03:19:00,31.6,13.1,30.03,WSW,247,11.4,17.0,46,0.00,,,0.00,WUHU21623XXSP,2013-01-19 08:19:00,
2013-01-19 03:24:00,31.8,13.2,30.02,SSW,202,10.5,17.0,46,0.00,,,0.00,WUHU21623XXSP,2013-01-19 08:24:00,
2013-01-19 03:29:00,31.8,13.2,30.02,SW,227,9.2,21.5,46,0.00,,,0.00,WUHU21623XXSP,2013-01-19 08:29:00,
2013-01-19 03:34:00,32.0,13.4,30.02,SW,220,7.1,21.5,46,0.00,,,0.00,WUHU21623XXSP,2013-01-19 08:34:00,
2013-01-19 03:39:00,32.2,13.1,30.02,WSW,243,11.5,19.9,45,0.00,,,0.00,WUHU21623XXSP,2013-01-19 08:39:00,
2013-01-19 03:44:00,32.4,13.3,30.02,WSW,247,11.6,20.1,45,0.00,,,0.00,WUHU21623XXSP,2013-01-19 08:44:00,
2013-01-19 03:49:00,32.4,13.3,30.02,SW,232,8.8,20.1,45,0.00,,,0.00,WUHU21623XXSP,2013-01-19 08:49:00,
2013-01-19 03:54:00,32.5,13.4,30.01,South,180,7.8,15.4,45,0.00,,,0.00,WUHU21623XXSP,2013-01-19 08:54:00,
2013-01-19 03:59:00,32.5,13.4,30.00,South,180,9.8,19.2,45,0.00,,,0.00,WUHU21623XXSP,2013-01-19 08:59:00,
2013-01-19 04:04:00,32.4,13.3,30.00,SW,225,14.5,19.2,45,0.00,,,0.00,WUHU21623XXSP,2013-01-19 09:04:00,
2013-01-19 04:15:00,32.4,13.3,30.00,SW,225,18.6,18.6,45,0.00,,,0.00,WUHU21623XXSP,2013-01-19 09:15:00,
2013-01-19 04:20:00,32.7,13.0,30.00,SW,225,11.2,18.6,44,0.00,,,0.00,WUHU21623XXSP,2013-01-19 09:20:00,
2013-01-19 04:25:00,32.7,13.6,30.00,SW,225,20.8,20.8,45,0.00,,,0.00,WUHU21623XXSP,2013-01-19 09:25:00,
2013-01-19 04:30:00,32.9,13.7,30.00,SW,228,7.9,22.8,45,0.00,,,0.00,WUHU21623XXSP,2013-01-19 09:30:00,
2013-01-19 04:35:00,33.1,13.9,30.00,SW,225,9.4,22.8,45,0.00,,,0.00,WUHU21623XXSP,2013-01-19 09:35:00,
2013-01-19 04:40:00,33.4,14.2,30.00,SW,230,8.5,18.6,45,0.00,,,0.00,WUHU21623XXSP,2013-01-19 09:40:00,
2013-01-19 04:45:00,33.6,13.8,30.00,WSW,239,10.6,18.8,44,0.00,,,0.00,WUHU21623XXSP,2013-01-19 09:45:00,
2013-01-19 04:50:00,33.6,13.8,30.00,SW,216,10.2,18.8,44,0.00,,,0.00,WUHU21623XXSP,2013-01-19 09:50:00,
2013-01-19 04:55:00,34.0,16.3,30.00,WSW,243,11.2,21.5,48,0.00,,,0.00,WUHU21623XXSP,2013-01-19 09:55:00,
2013-01-19 05:00:00,34.0,15.3,30.00,SW,225,13.9,21.5,46,0.00,,,0.00,WUHU21623XXSP,2013-01-19 10:00:00,
2013-01-19 05:05:00,34.2,15.4,29.99,South,180,6.9,20.4,46,0.00,,,0.00,WUHU21623XXSP,2013-01-19 10:05:00,
2013-01-19 05:10:00,34.2,14.9,30.00,West,270,11.0,18.3,45,0.00,,,0.00,WUHU21623XXSP,2013-01-19 10:10:00,
2013-01-19 05:15:00,34.2,14.9,30.00,WSW,247,5.7,18.3,45,0.00,,,0.00,WUHU21623XXSP,2013-01-19 10:15:00,
2013-01-19 05:20:00,34.2,14.9,30.00,WSW,239,7.3,15.4,45,0.00,,,0.00,WUHU21623XXSP,2013-01-19 10:20:00,
2013-01-19 05:25:00,34.2,14.9,30.00,SW,236,5.3,14.5,45,0.00,,,0.00,WUHU21623XXSP,2013-01-19 10:25:00,
2013-01-19 05:30:00,34.2,14.9,30.00,SW,233,9.1,14.5,45,0.00,,,0.00,WUHU21623XXSP,2013-01-19 10:30:00,
2013-01-19 05:35:00,34.0,15.3,30.00,SW,225,13.2,13.9,46,0.00,,,0.00,WUHU21623XXSP,2013-01-19 10:35:00,
2013-01-19 05:40:00,34.0,14.7,30.00,SW,234,7.3,15.4,45,0.00,,,0.00,WUHU21623XXSP,2013-01-19 10:40:00,
2013-01-19 05:45:00,34.0,14.7,30.00,South,180,6.7,15.4,45,0.00,,,0.00,WUHU21623XXSP,2013-01-19 10:45:00,
2013-01-19 05:50:00,34.2,14.9,30.00,WSW,247,6.7,19.7,45,0.00,,,0.00,WUHU21623XXSP,2013-01-19 10:50:00,
2013-01-19 05:55:00,34.2,14.9,30.00,SW,234,6.5,19.7,45,0.00,,,0.00,WUHU21623XXSP,2013-01-19 10:55:00,
2013-01-19 06:00:00,34.0,15.3,30.00,WSW,246,5.4,14.5,46,0.00,,,0.00,WUHU21623XXSP,2013-01-19 11:00:00,
2013-01-19 06:05:00,34.0,15.3,29.99,WSW,247,8.1,15.9,46,0.00,,,0.00,WUHU21623XXSP,2013-01-19 11:05:00,
2013-01-19 06:10:00,34.0,15.3,30.00,SSW,202,7.6,15.9,46,0.00,,,0.00,WUHU21623XXSP,2013-01-19 11:10:00,
2013-01-19 06:14:00,34.0,15.3,29.99,WSW,247,9.2,13.0,46,0.00,,,0.00,WUHU21623XXSP,2013-01-19 11:14:00,
2013-01-19 06:18:00,34.0,15.3,29.99,SW,236,7.1,19.5,46,0.00,,,0.00,WUHU21623XXSP,2013-01-19 11:18:00,
2013-01-19 06:19:00,34.0,15.3,29.99,WSW,240,6.2,19.5,46,0.00,,,0.00,WUHU21623XXSP,2013-01-19 11:19:00,
2013-01-19 06:22:00,34.0,15.3,30.00,SW,230,7.3,19.5,46,0.00,,,0.00,WUHU21623XXSP,2013-01-19 11:22:00,
2013-01-19 06:24:00,34.0,15.3,30.00,SW,234,5.9,19.5,46,0.00,,,0.00,WUHU21623XXSP,2013-01-19 11:24:00,
2013-01-19 06:25:00,34.0,15.3,29.99,SW,236,4.5,19.5,46,0.00,,,0.00,WUHU21623XXSP,2013-01-19 11:25:00,
2013-01-19 06:27:00,34.0,15.3,30.00,WSW,241,6.4,15.4,46,0.00,,,0.00,WUHU21623XXSP,2013-01-19 11:27:00,
2013-01-19 06:28:00,34.0,15.3,29.99,SW,225,7.4,16.1,46,0.00,,,0.00,WUHU21623XXSP,2013-01-19 11:28:00,
2013-01-19 06:30:00,34.0,15.3,29.99,WSW,247,11.2,16.1,46,0.00,,,0.00,WUHU21623XXSP,2013-01-19 11:30:00,
2013-01-19 06:33:00,34.0,15.3,29.99,SSW,202,13.0,21.0,46,0.00,,,0.00,WUHU21623XXSP,2013-01-19 11:33:00,
2013-01-19 06:35:00,34.2,15.4,30.00,SSW,202,8.7,21.0,46,0.00,,,0.00,WUHU21623XXSP,2013-01-19 11:35:00,
2013-01-19 06:36:00,34.2,14.9,29.99,WSW,247,10.7,21.0,45,0.00,,,0.00,WUHU21623XXSP,2013-01-19 11:36:00,
2013-01-19 06:38:00,34.2,15.4,30.00,SW,230,7.2,21.0,46,0.00,,,0.00,WUHU21623XXSP,2013-01-19 11:38:00,
2013-01-19 06:39:00,34.2,15.4,29.99,SW,215,7.2,21.0,46,0.00,,,0.00,WUHU21623XXSP,2013-01-19 11:39:00,
2013-01-19 06:41:00,34.2,14.9,29.99,SW,228,7.5,16.3,45,0.00,,,0.00,WUHU21623XXSP,2013-01-19 11:41:00,
2013-01-19 06:42:00,34.3,15.0,30.00,South,180,8.3,16.3,45,0.00,,,0.00,WUHU21623XXSP,2013-01-19 11:42:00,
2013-01-19 06:44:00,34.3,15.0,30.00,SSW,210,5.0,16.3,45,0.00,,,0.00,WUHU21623XXSP,2013-01-19 11:44:00,
2013-01-19 06:45:00,34.3,15.5,30.00,SW,225,9.6,16.3,46,0.00,,,0.00,WUHU21623XXSP,2013-01-19 11:45:00,
2013-01-19 06:47:00,34.3,15.5,30.00,SW,225,11.9,16.3,46,0.00,,,0.00,WUHU21623XXSP,2013-01-19 11:47:00,
2013-01-19 06:48:00,34.3,15.5,30.00,SW,219,6.7,15.7,46,0.00,,,0.00,WUHU21623XXSP,2013-01-19 11:48:00,
2013-01-19 06:50:00,34.3,15.5,29.99,SW,235,7.2,15.7,46,0.00,,,0.00,WUHU21623XXSP,2013-01-19 11:50:00,
2013-01-19 06:53:00,34.3,15.5,29.99,WSW,247,5.1,15.0,46,0.00,,,0.00,WUHU21623XXSP,2013-01-19 11:53:00,
2013-01-19 06:55:00,34.2,15.4,29.99,SW,227,5.8,15.0,46,0.00,,,0.00,WUHU21623XXSP,2013-01-19 11:55:00,
2013-01-19 06:56:00,34.2,15.4,30.00,SW,236,6.4,13.2,46,0.00,,,0.00,WUHU21623XXSP,2013-01-19 11:56:00,
2013-01-19 06:58:00,34.2,14.9,29.99,SSW,202,8.3,13.2,45,0.00,,,0.00,WUHU21623XXSP,2013-01-19 11:58:00,
2013-01-19 07:01:00,34.2,15.4,30.00,SW,225,10.3,12.1,46,0.00,,,0.00,WUHU21623XXSP,2013-01-19 12:01:00,
2013-01-19 07:02:00,34.2,15.4,29.99,SW,225,8.7,12.1,46,0.00,,,0.00,WUHU21623XXSP,2013-01-19 12:02:00,
2013-01-19 07:04:00,34.2,15.4,29.99,SW,225,10.5,12.1,46,0.00,,,0.00,WUHU21623XXSP,2013-01-19 12:04:00,
2013-01-19 07:07:00,34.2,14.9,29.99,SW,228,9.0,15.9,45,0.00,,,0.00,WUHU21623XXSP,2013-01-19 12:07:00,
2013-01-19 07:08:00,34.2,14.9,29.99,SW,228,5.8,15.9,45,0.00,,,0.00,WUHU21623XXSP,2013-01-19 12:08:00,
2013-01-19 07:10:00,34.2,14.9,29.99,SSW,213,7.2,15.9,45,0.00,,,0.00,WUHU21623XXSP,2013-01-19 12:10:00,
2013-01-19 07:12:00,34.2,14.9,29.99,South,180,7.2,15.9,45,0.00,,,0.00,WUHU21623XXSP,2013-01-19 12:12:00,
2013-01-19 07:13:00,34.2,14.9,29.98,SSW,209,5.4,15.9,45,0.00,,,0.00,WUHU21623XXSP,2013-01-19 12:13:00,
2013-01-19 07:15:00,34.2,15.4,29.99,SW,235,4.2,14.3,46,0.00,,,0.00,WUHU21623XXSP,2013-01-19 12:15:00,
2013-01-19 07:16:00,34.2,15.4,29.99,WSW,247,7.6,13.6,46,0.00,,,0.00,WUHU21623XXSP,2013-01-19 12:16:00,
2013-01-19 07:18:00,34.0,15.3,29.99,WSW,247,9.2,13.6,46,0.00,,,0.00,WUHU21623XXSP,2013-01-19 12:18:00,
2013-01-19 07:19:00,34.2,15.4,29.98,SW,229,7.4,13.6,46,0.00,,,0.00,WUHU21623XXSP,2013-01-19 12:19:00,
2013-01-19 07:21:00,34.0,15.3,29.98,SSW,202,11.0,13.6,46,0.00,,,0.00,WUHU21623XXSP,2013-01-19 12:21:00,
2013-01-19 07:22:00,34.0,15.3,29.99,SE,135,7.6,13.6,46,0.00,,,0.00,WUHU21623XXSP,2013-01-19 12:22:00,
2013-01-19 07:24:00,34.0,15.3,29.99,SW,232,5.7,13.6,46,0.00,,,0.00,WUHU21623XXSP,2013-01-19 12:24:00,
2013-01-19 07:25:00,34.0,15.3,29.99,SW,235,5.6,13.6,46,0.00,,,0.00,WUHU21623XXSP,2013-01-19 12:25:00,
2013-01-19 07:27:00,33.8,15.1,29.99,SW,228,6.5,11.0,46,0.00,,,0.00,WUHU21623XXSP,2013-01-19 12:27:00,
2013-01-19 07:28:00,34.0,15.3,29.99,SW,225,12.3,12.3,46,0.00,,,0.00,WUHU21623XXSP,2013-01-19 12:28:00,
2013-01-19 07:30:00,33.8,14.6,29.99,SW,227,6.2,12.3,45,0.00,,,0.00,WUHU21623XXSP,2013-01-19 12:30:00,
2013-01-19 07:32:00,33.8,15.1,29.99,WSW,247,4.9,12.3,46,0.00,,,0.00,WUHU21623XXSP,2013-01-19 12:32:00,
2013-01-19 07:33:00,33.8,14.6,29.99,SW,225,4.7,12.3,45,0.00,,,0.00,WUHU21623XXSP,2013-01-19 12:33:00,
2013-01-19 07:34:00,33.8,15.1,29.99,SW,216,5.7,13.4,46,0.00,,,0.00,WUHU21623XXSP,2013-01-19 12:34:00,
2013-01-19 07:36:00,33.8,15.1,29.98,SSW,202,6.5,13.4,46,0.00,,,0.00,WUHU21623XXSP,2013-01-19 12:36:00,
2013-01-19 07:37:00,33.8,15.1,29.99,South,180,9.2,13.4,46,0.00,,,0.00,WUHU21623XXSP,2013-01-19 12:37:00,
2013-01-19 07:47:00,34.0,15.3,29.99,SW,235,7.1,14.1,46,0.00,,,0.00,WUHU21623XXSP,2013-01-19 12:47:00,
2013-01-19 07:48:00,33.8,15.1,29.99,WSW,239,5.7,14.1,46,0.00,,,0.00,WUHU21623XXSP,2013-01-19 12:48:00,
2013-01-19 07:53:00,34.2,15.4,29.99,SW,220,7.0,14.1,46,0.00,,,0.00,WUHU21623XXSP,2013-01-19 12:53:00,
2013-01-19 07:58:00,34.2,15.4,29.99,SW,225,6.1,14.8,46,0.00,,,0.00,WUHU21623XXSP,2013-01-19 12:58:00,
2013-01-19 08:03:00,34.3,15.5,29.98,SSW,202,10.7,18.3,46,0.00,,,0.00,WUHU21623XXSP,2013-01-19 13:03:00,
2013-01-19 08:08:00,34.5,15.7,29.99,WSW,247,12.3,18.3,46,0.00,,,0.00,WUHU21623XXSP,2013-01-19 13:08:00,
2013-01-19 08:13:00,34.7,15.4,29.98,SSW,213,6.3,13.4,45,0.00,,,0.00,WUHU21623XXSP,2013-01-19 13:13:00,
2013-01-19 08:18:00,34.9,16.1,29.98,SSW,202,12.1,15.2,46,0.00,,,0.00,WUHU21623XXSP,2013-01-19 13:18:00,
2013-01-19 08:23:00,35.2,15.8,29.98,WSW,247,5.8,15.2,45,0.00,,,0.00,WUHU21623XXSP,2013-01-19 13:23:00,
2013-01-19 08:28:00,35.2,15.8,29.99,SW,225,5.3,18.6,45,0.00,,,0.00,WUHU21623XXSP,2013-01-19 13:28:00,
2013-01-19 08:33:00,35.4,16.0,29.99,West,270,10.1,18.6,45,0.00,,,0.00,WUHU21623XXSP,2013-01-19 13:33:00,
2013-01-19 08:38:00,35.4,16.0,30.00,SW,229,7.5,18.3,45,0.00,,,0.00,WUHU21623XXSP,2013-01-19 13:38:00,
2013-01-19 08:43:00,35.6,16.2,29.99,SW,225,11.2,13.6,45,0.00,,,0.00,WUHU21623XXSP,2013-01-19 13:43:00,
2013-01-19 08:48:00,35.8,15.9,29.99,SW,227,6.0,14.5,44,0.00,,,0.00,WUHU21623XXSP,2013-01-19 13:48:00,
2013-01-19 08:53:00,35.8,16.4,29.99,SW,225,7.6,15.2,45,0.00,,,0.00,WUHU21623XXSP,2013-01-19 13:53:00,
2013-01-19 08:58:00,36.0,16.0,29.99,SW,236,7.2,15.9,44,0.00,,,0.00,WUHU21623XXSP,2013-01-19 13:58:00,
2013-01-19 09:03:00,36.3,16.3,29.99,WSW,247,8.7,15.9,44,0.00,,,0.00,WUHU21623XXSP,2013-01-19 14:03:00,
2013-01-19 09:08:00,36.3,15.8,29.99,SSW,202,7.8,13.6,43,0.00,,,0.00,WUHU21623XXSP,2013-01-19 14:08:00,
2013-01-19 09:13:00,36.5,15.9,29.99,WSW,237,4.7,17.4,43,0.00,,,0.00,WUHU21623XXSP,2013-01-19 14:13:00,
2013-01-19 09:18:00,36.5,15.9,29.99,SSW,207,7.9,17.4,43,0.00,,,0.00,WUHU21623XXSP,2013-01-19 14:18:00,
2013-01-19 09:23:00,36.5,15.9,29.99,SW,227,7.2,13.6,43,0.00,,,0.00,WUHU21623XXSP,2013-01-19 14:23:00,
2013-01-19 09:28:00,36.7,16.1,29.99,WSW,247,9.4,19.7,43,0.00,,,0.00,WUHU21623XXSP,2013-01-19 14:28:00,
2013-01-19 09:33:00,37.0,17.0,29.99,WSW,247,9.8,19.7,44,0.00,,,0.00,WUHU21623XXSP,2013-01-19 14:33:00,
2013-01-19 09:38:00,37.2,16.6,29.99,WSW,247,10.3,12.5,43,0.00,,,0.00,WUHU21623XXSP,2013-01-19 14:38:00,
2013-01-19 09:43:00,37.2,16.6,29.99,SW,224,7.0,14.1,43,0.00,,,0.00,WUHU21623XXSP,2013-01-19 14:43:00,
2013-01-19 09:49:00,37.2,16.6,29.99,SSW,202,7.4,14.1,43,0.00,,,0.00,WUHU21623XXSP,2013-01-19 14:49:00,
2013-01-19 09:54:00,37.6,17.0,29.99,SW,232,7.4,18.8,43,0.00,,,0.00,WUHU21623XXSP,2013-01-19 14:54:00,
2013-01-19 09:59:00,37.9,17.8,29.99,SW,233,7.6,18.8,44,0.00,,,0.00,WUHU21623XXSP,2013-01-19 14:59:00,
2013-01-19 10:04:00,38.5,17.8,29.99,WSW,239,6.7,13.2,43,0.00,,,0.00,WUHU21623XXSP,2013-01-19 15:04:00,
2013-01-19 10:09:00,38.7,17.4,29.99,WNW,292,7.2,13.4,42,0.00,,,0.00,WUHU21623XXSP,2013-01-19 15:09:00,
2013-01-19 10:14:00,38.8,18.0,29.99,SW,234,6.2,13.9,43,0.00,,,0.00,WUHU21623XXSP,2013-01-19 15:14:00,
2013-01-19 10:19:00,39.0,18.2,29.99,WSW,247,6.5,13.9,43,0.00,,,0.00,WUHU21623XXSP,2013-01-19 15:19:00,
2013-01-19 10:24:00,39.4,18.0,29.99,SW,225,17.9,17.9,42,0.00,,,0.00,WUHU21623XXSP,2013-01-19 15:24:00,
2013-01-19 10:29:00,39.7,18.3,30.00,SW,229,7.0,17.9,42,0.00,,,0.00,WUHU21623XXSP,2013-01-19 15:29:00,
2013-01-19 10:34:00,39.9,18.5,29.99,SSW,202,6.0,17.9,42,0.00,,,0.00,WUHU21623XXSP,2013-01-19 15:34:00,
2013-01-19 10:39:00,40.1,18.1,29.99,WSW,243,8.4,21.5,41,0.00,,,0.00,WUHU21623XXSP,2013-01-19 15:39:00,
2013-01-19 10:44:00,40.3,17.7,29.99,WSW,239,9.7,21.5,40,0.00,,,0.00,WUHU21623XXSP,2013-01-19 15:44:00,
2013-01-19 10:49:00,40.3,18.3,30.00,WSW,247,10.5,18.6,41,0.00,,,0.00,WUHU21623XXSP,2013-01-19 15:49:00,
2013-01-19 10:54:00,40.8,19.3,29.99,SW,225,7.5,17.4,42,0.00,,,0.00,WUHU21623XXSP,2013-01-19 15:54:00,
2013-01-19 10:59:00,41.2,19.1,29.99,SW,234,7.4,16.8,41,0.00,,,0.00,WUHU21623XXSP,2013-01-19 15:59:00,
2013-01-19 11:04:00,41.4,19.3,29.99,SW,234,8.0,15.0,41,0.00,,,0.00,WUHU21623XXSP,2013-01-19 16:04:00,
2013-01-19 11:09:00,41.5,19.4,29.98,SW,225,15.7,15.7,41,0.00,,,0.00,WUHU21623XXSP,2013-01-19 16:09:00,
2013-01-19 11:14:00,41.7,19.5,29.98,SW,225,17.9,17.9,41,0.00,,,0.00,WUHU21623XXSP,2013-01-19 16:14:00,
2013-01-19 11:19:00,41.9,19.7,29.97,SW,225,6.5,17.9,41,0.00,,,0.00,WUHU21623XXSP,2013-01-19 16:19:00,
2013-01-19 11:24:00,42.3,19.5,29.97,WSW,247,7.2,14.8,40,0.00,,,0.00,WUHU21623XXSP,2013-01-19 16:24:00,
2013-01-19 11:29:00,42.4,20.2,29.96,WSW,250,7.4,15.7,41,0.00,,,0.00,WUHU21623XXSP,2013-01-19 16:29:00,
2013-01-19 11:34:00,42.4,20.2,29.97,WSW,239,6.8,15.7,41,0.00,,,0.00,WUHU21623XXSP,2013-01-19 16:34:00,
2013-01-19 11:39:00,42.4,20.2,29.96,South,180,8.7,16.1,41,0.00,,,0.00,WUHU21623XXSP,2013-01-19 16:39:00,
2013-01-19 11:44:00,42.4,19.6,29.96,WSW,254,5.9,17.7,40,0.00,,,0.00,WUHU21623XXSP,2013-01-19 16:44:00,
2013-01-19 11:49:00,42.4,20.2,29.96,West,270,9.2,17.7,41,0.00,,,0.00,WUHU21623XXSP,2013-01-19 16:49:00,
2013-01-19 11:54:00,42.6,20.3,29.96,WSW,237,5.1,17.2,41,0.00,,,0.00,WUHU21623XXSP,2013-01-19 16:54:00,
2013-01-19 11:59:00,43.2,20.9,29.95,SW,234,5.7,13.4,41,0.00,,,0.00,WUHU21623XXSP,2013-01-19 16:59:00,
2013-01-19 12:04:00,43.3,21.0,29.95,SW,227,6.2,17.0,41,0.00,,,0.00,WUHU21623XXSP,2013-01-19 17:04:00,
2013-01-19 12:09:00,43.3,21.6,29.95,WSW,247,9.2,17.0,42,0.00,,,0.00,WUHU21623XXSP,2013-01-19 17:09:00,
2013-01-19 12:14:00,43.3,21.6,29.95,SW,225,12.3,14.3,42,0.00,,,0.00,WUHU21623XXSP,2013-01-19 17:14:00,
2013-01-19 12:19:00,43.5,21.7,29.95,WSW,252,4.9,14.3,42,0.00,,,0.00,WUHU21623XXSP,2013-01-19 17:19:00,
2013-01-19 12:24:00,43.9,22.1,29.94,SW,225,14.5,17.0,42,0.00,,,0.00,WUHU21623XXSP,2013-01-19 17:24:00,
2013-01-19 12:29:00,44.1,21.7,29.94,WSW,247,6.5,14.5,41,0.00,,,0.00,WUHU21623XXSP,2013-01-19 17:29:00,
2013-01-19 12:34:00,44.2,21.8,29.94,SW,225,7.4,12.5,41,0.00,,,0.00,WUHU21623XXSP,2013-01-19 17:34:00,
2013-01-19 12:40:00,44.4,22.0,29.94,WSW,253,5.3,12.5,41,0.00,,,0.00,WUHU21623XXSP,2013-01-19 17:40:00,
2013-01-19 12:45:00,44.4,22.0,29.94,WSW,247,8.9,14.5,41,0.00,,,0.00,WUHU21623XXSP,2013-01-19 17:45:00,
2013-01-19 12:50:00,45.0,22.5,29.94,SW,225,9.8,14.5,41,0.00,,,0.00,WUHU21623XXSP,2013-01-19 17:50:00,
2013-01-19 12:55:00,45.3,22.8,29.94,SW,229,7.8,18.8,41,0.00,,,0.00,WUHU21623XXSP,2013-01-19 17:55:00,
2013-01-19 13:00:00,45.3,22.8,29.94,SW,225,7.6,18.8,41,0.00,,,0.00,WUHU21623XXSP,2013-01-19 18:00:00,
2013-01-19 13:06:00,45.5,22.4,29.94,WSW,242,5.0,18.8,40,0.00,,,0.00,WUHU21623XXSP,2013-01-19 18:06:00,
2013-01-19 13:11:00,45.3,22.2,29.93,WSW,247,8.7,13.4,40,0.00,,,0.00,WUHU21623XXSP,2013-01-19 18:11:00,
2013-01-19 13:16:00,45.1,22.6,29.93,WSW,237,5.4,13.0,41,0.00,,,0.00,WUHU21623XXSP,2013-01-19 18:16:00,
2013-01-19 13:21:00,45.1,22.6,29.93,WSW,250,4.4,13.6,41,0.00,,,0.00,WUHU21623XXSP,2013-01-19 18:21:00,
2013-01-19 13:27:00,44.8,22.3,29.93,WSW,247,5.1,13.6,41,0.00,,,0.00,WUHU21623XXSP,2013-01-19 18:27:00,
2013-01-19 13:32:00,44.4,22.0,29.92,SW,229,7.8,12.3,41,0.00,,,0.00,WUHU21623XXSP,2013-01-19 18:32:00,
2013-01-19 13:37:00,44.4,22.0,29.92,WSW,247,9.2,12.3,41,0.00,,,0.00,WUHU21623XXSP,2013-01-19 18:37:00,
2013-01-19 13:42:00,44.4,22.6,29.92,SW,236,7.4,12.1,42,0.00,,,0.00,WUHU21623XXSP,2013-01-19 18:42:00,
2013-01-19 13:47:00,44.6,22.7,29.92,SW,235,6.5,12.3,42,0.00,,,0.00,WUHU21623XXSP,2013-01-19 18:47:00,
2013-01-19 13:53:00,44.8,22.9,29.92,SW,232,7.3,12.3,42,0.00,,,0.00,WUHU21623XXSP,2013-01-19 18:53:00,
2013-01-19 13:58:00,45.0,23.1,29.92,SSW,202,5.1,12.3,42,0.00,,,0.00,WUHU21623XXSP,2013-01-19 18:58:00,
2013-01-19 14:03:00,45.1,23.8,29.92,SW,220,5.2,8.7,43,0.00,,,0.00,WUHU21623XXSP,2013-01-19 19:03:00,
2013-01-19 14:08:00,45.1,23.8,29.92,SW,214,4.4,11.6,43,0.00,,,0.00,WUHU21623XXSP,2013-01-19 19:08:00,
2013-01-19 14:14:00,45.3,24.0,29.91,WSW,247,5.8,11.6,43,0.00,,,0.00,WUHU21623XXSP,2013-01-19 19:14:00,
2013-01-19 14:19:00,45.3,24.0,29.91,WSW,243,5.2,12.8,43,0.00,,,0.00,WUHU21623XXSP,2013-01-19 19:19:00,
2013-01-19 14:24:00,45.7,24.3,29.91,SW,225,5.7,12.8,43,0.00,,,0.00,WUHU21623XXSP,2013-01-19 19:24:00,
2013-01-19 14:29:00,46.0,24.6,29.91,WSW,247,6.0,10.5,43,0.00,,,0.00,WUHU21623XXSP,2013-01-19 19:29:00,
2013-01-19 14:34:00,46.2,24.8,29.91,South,180,3.8,10.5,43,0.00,,,0.00,WUHU21623XXSP,2013-01-19 19:34:00,
2013-01-19 14:39:00,46.2,24.8,29.91,SW,220,3.6,10.7,43,0.00,,,0.00,WUHU21623XXSP,2013-01-19 19:39:00,
2013-01-19 14:44:00,46.4,25.0,29.91,SW,234,6.3,10.7,43,0.00,,,0.00,WUHU21623XXSP,2013-01-19 19:44:00,
2013-01-19 14:49:00,46.6,25.1,29.91,WSW,237,5.3,10.5,43,0.00,,,0.00,WUHU21623XXSP,2013-01-19 19:49:00,
2013-01-19 14:55:00,46.8,25.3,29.90,WSW,241,4.2,10.1,43,0.00,,,0.00,WUHU21623XXSP,2013-01-19 19:55:00,
2013-01-19 15:00:00,46.8,25.3,29.90,WSW,238,3.0,7.6,43,0.00,,,0.00,WUHU21623XXSP,2013-01-19 20:00:00,
2013-01-19 15:05:00,46.6,25.1,29.90,SW,225,4.7,7.6,43,0.00,,,0.00,WUHU21623XXSP,2013-01-19 20:05:00,
2013-01-19 15:10:00,46.0,24.6,29.90,WSW,251,3.6,8.1,43,0.00,,,0.00,WUHU21623XXSP,2013-01-19 20:10:00,
2013-01-19 15:15:00,45.7,24.9,29.90,SSW,202,4.1,8.1,44,0.00,,,0.00,WUHU21623XXSP,2013-01-19 20:15:00,
2013-01-19 15:20:00,45.3,25.1,29.90,WSW,240,3.2,7.4,45,0.00,,,0.00,WUHU21623XXSP,2013-01-19 20:20:00,
2013-01-19 15:25:00,45.3,25.1,29.89,SW,225,4.3,6.0,45,0.00,,,0.00,WUHU21623XXSP,2013-01-19 20:25:00,
2013-01-19 15:30:00,45.3,25.1,29.89,SW,225,5.6,6.7,45,0.00,,,0.00,WUHU21623XXSP,2013-01-19 20:30:00,
2013-01-19 15:35:00,45.1,24.3,29.89,SW,234,3.2,8.1,44,0.00,,,0.00,WUHU21623XXSP,2013-01-19 20:35:00,
2013-01-19 15:40:00,45.1,24.9,29.89,WSW,238,3.3,8.1,45,0.00,,,0.00,WUHU21623XXSP,2013-01-19 20:40:00,
2013-01-19 15:45:00,45.1,24.9,29.88,SW,235,2.1,5.1,45,0.00,,,0.00,WUHU21623XXSP,2013-01-19 20:45:00,
2013-01-19 15:51:00,45.0,24.8,29.88,SW,217,2.0,6.0,45,0.00,,,0.00,WUHU21623XXSP,2013-01-19 20:51:00,
2013-01-19 15:57:00,44.8,24.6,29.88,South,169,3.2,8.5,45,0.00,,,0.00,WUHU21623XXSP,2013-01-19 20:57:00,
2013-01-19 16:02:00,44.8,24.6,29.88,WSW,247,4.5,8.5,45,0.00,,,0.00,WUHU21623XXSP,2013-01-19 21:02:00,
2013-01-19 16:07:00,44.4,24.8,29.87,SW,226,3.6,7.4,46,0.00,,,0.00,WUHU21623XXSP,2013-01-19 21:07:00,
2013-01-19 16:12:00,44.4,24.8,29.87,SSW,211,2.5,9.4,46,0.00,,,0.00,WUHU21623XXSP,2013-01-19 21:12:00,
2013-01-19 16:17:00,44.2,24.1,29.87,WSW,242,3.3,9.8,45,0.00,,,0.00,WUHU21623XXSP,2013-01-19 21:17:00,
2013-01-19 16:22:00,44.2,24.6,29.86,SW,225,2.7,9.8,46,0.00,,,0.00,WUHU21623XXSP,2013-01-19 21:22:00,
2013-01-19 16:27:00,43.9,24.3,29.86,SSW,211,3.8,8.1,46,0.00,,,0.00,WUHU21623XXSP,2013-01-19 21:27:00,
2013-01-19 16:32:00,43.7,24.2,29.86,SW,222,3.6,8.1,46,0.00,,,0.00,WUHU21623XXSP,2013-01-19 21:32:00,
2013-01-19 16:37:00,43.5,24.0,29.86,SSW,202,4.9,8.1,46,0.00,,,0.00,WUHU21623XXSP,2013-01-19 21:37:00,
2013-01-19 16:42:00,43.5,24.0,29.86,WSW,240,4.9,11.0,46,0.00,,,0.00,WUHU21623XXSP,2013-01-19 21:42:00,
2013-01-19 16:48:00,43.5,24.0,29.86,WSW,237,2.6,11.0,46,0.00,,,0.00,WUHU21623XXSP,2013-01-19 21:48:00,
2013-01-19 16:53:00,43.5,24.0,29.86,WSW,247,5.6,9.4,46,0.00,,,0.00,WUHU21623XXSP,2013-01-19 21:53:00,
2013-01-19 16:58:00,43.5,24.5,29.86,WSW,247,3.1,9.4,47,0.00,,,0.00,WUHU21623XXSP,2013-01-19 21:58:00,
2013-01-19 17:03:00,43.5,24.0,29.85,SSW,202,8.1,9.4,46,0.00,,,0.00,WUHU21623XXSP,2013-01-19 22:03:00,
2013-01-19 17:08:00,43.5,24.5,29.85,West,270,4.3,8.7,47,0.00,,,0.00,WUHU21623XXSP,2013-01-19 22:08:00,
2013-01-19 17:13:00,43.3,24.3,29.85,SSW,211,4.6,11.2,47,0.00,,,0.00,WUHU21623XXSP,2013-01-19 22:13:00,
2013-01-19 17:18:00,43.3,24.3,29.85,SW,235,4.3,11.2,47,0.00,,,0.00,WUHU21623XXSP,2013-01-19 22:18:00,
2013-01-19 17:23:00,43.3,24.3,29.85,WSW,247,3.4,7.8,47,0.00,,,0.00,WUHU21623XXSP,2013-01-19 22:23:00,
2013-01-19 17:28:00,43.3,24.3,29.85,SW,225,5.6,9.2,47,0.00,,,0.00,WUHU21623XXSP,2013-01-19 22:28:00,
2013-01-19 17:33:00,43.3,24.3,29.85,WSW,247,4.0,9.2,47,0.00,,,0.00,WUHU21623XXSP,2013-01-19 22:33:00,
2013-01-19 17:38:00,43.3,24.3,29.85,West,270,4.5,9.4,47,0.00,,,0.00,WUHU21623XXSP,2013-01-19 22:38:00,
2013-01-19 17:43:00,43.3,24.3,29.84,WSW,241,3.1,9.4,47,0.00,,,0.00,WUHU21623XXSP,2013-01-19 22:43:00,
2013-01-19 17:48:00,43.5,24.5,29.84,WSW,247,5.1,9.2,47,0.00,,,0.00,WUHU21623XXSP,2013-01-19 22:48:00,
2013-01-19 17:53:00,43.5,24.5,29.84,WSW,247,5.1,6.9,47,0.00,,,0.00,WUHU21623XXSP,2013-01-19 22:53:00,
2013-01-19 17:58:00,43.5,24.5,29.84,WSW,247,4.3,9.2,47,0.00,,,0.00,WUHU21623XXSP,2013-01-19 22:58:00,
2013-01-19 18:04:00,43.5,24.5,29.83,South,183,3.6,9.2,47,0.00,,,0.00,WUHU21623XXSP,2013-01-19 23:04:00,
2013-01-19 18:09:00,43.5,24.5,29.83,South,185,4.2,6.7,47,0.00,,,0.00,WUHU21623XXSP,2013-01-19 23:09:00,
2013-01-19 18:14:00,43.5,25.0,29.83,South,180,2.9,7.2,48,0.00,,,0.00,WUHU21623XXSP,2013-01-19 23:14:00,
2013-01-19 18:19:00,43.3,24.8,29.83,South,173,3.9,8.7,48,0.00,,,0.00,WUHU21623XXSP,2013-01-19 23:19:00,
2013-01-19 18:24:00,43.2,24.7,29.82,South,180,8.5,8.9,48,0.00,,,0.00,WUHU21623XXSP,2013-01-19 23:24:00,
2013-01-19 18:29:00,43.2,24.7,29.82,SSE,162,4.7,9.8,48,0.00,,,0.00,WUHU21623XXSP,2013-01-19 23:29:00,
2013-01-19 18:34:00,43.0,24.6,29.82,SSE,161,5.9,15.0,48,0.00,,,0.00,WUHU21623XXSP,2013-01-19 23:34:00,
2013-01-19 18:39:00,43.0,24.6,29.82,SSW,202,9.8,15.0,48,0.00,,,0.00,WUHU21623XXSP,2013-01-19 23:39:00,
2013-01-19 18:44:00,42.6,24.2,29.81,SSE,157,9.2,12.3,48,0.00,,,0.00,WUHU21623XXSP,2013-01-19 23:44:00,
2013-01-19 18:49:00,42.6,24.2,29.81,SSE,166,6.8,12.3,48,0.00,,,0.00,WUHU21623XXSP,2013-01-19 23:49:00,
2013-01-19 18:54:00,42.6,24.2,29.81,South,180,6.5,12.3,48,0.00,,,0.00,WUHU21623XXSP,2013-01-19 23:54:00,
2013-01-19 18:59:00,42.4,24.0,29.81,South,178,6.3,12.3,48,0.00,,,0.00,WUHU21623XXSP,2013-01-19 23:59:00,
2013-01-19 19:04:00,42.4,23.5,29.80,South,186,6.8,11.2,47,0.00,,,0.00,WUHU21623XXSP,2013-01-20 00:04:00,
2013-01-19 19:09:00,42.4,23.5,29.80,SSW,197,6.1,13.0,47,0.00,,,0.00,WUHU21623XXSP,2013-01-20 00:09:00,
2013-01-19 19:14:00,42.4,23.5,29.80,South,189,5.0,13.0,47,0.00,,,0.00,WUHU21623XXSP,2013-01-20 00:14:00,
2013-01-19 19:19:00,42.1,23.2,29.80,South,189,6.5,14.5,47,0.00,,,0.00,WUHU21623XXSP,2013-01-20 00:19:00,
2013-01-19 19:24:00,42.1,22.7,29.79,SSW,195,6.6,14.5,46,0.00,,,0.00,WUHU21623XXSP,2013-01-20 00:24:00,
2013-01-19 19:29:00,42.4,23.0,29.79,SW,227,4.8,11.2,46,0.00,,,0.00,WUHU21623XXSP,2013-01-20 00:29:00,
2013-01-19 19:34:00,42.4,23.0,29.79,SW,226,8.3,21.0,46,0.00,,,0.00,WUHU21623XXSP,2013-01-20 00:34:00,
2013-01-19 19:40:00,42.6,22.6,29.78,SSW,212,8.7,21.0,45,0.00,,,0.00,WUHU21623XXSP,2013-01-20 00:40:00,
2013-01-19 19:45:00,42.6,22.6,29.78,SSW,203,5.6,17.0,45,0.00,,,0.00,WUHU21623XXSP,2013-01-20 00:45:00,
2013-01-19 19:50:00,42.6,22.1,29.77,SW,216,8.1,17.2,44,0.00,,,0.00,WUHU21623XXSP,2013-01-20 00:50:00,
2013-01-19 19:55:00,43.0,21.9,29.77,SW,225,8.7,17.2,43,0.00,,,0.00,WUHU21623XXSP,2013-01-20 00:55:00,
2013-01-19 20:00:00,43.2,21.5,29.77,SW,218,6.3,18.3,42,0.00,,,0.00,WUHU21623XXSP,2013-01-20 01:00:00,
2013-01-19 20:05:00,43.3,21.6,29.77,SSW,193,7.0,18.3,42,0.00,,,0.00,WUHU21623XXSP,2013-01-20 01:05:00,
2013-01-19 20:10:00,43.3,21.6,29.76,SW,217,6.5,18.8,42,0.00,,,0.00,WUHU21623XXSP,2013-01-20 01:10:00,
2013-01-19 20:15:00,43.3,21.0,29.76,SSW,209,7.4,18.8,41,0.00,,,0.00,WUHU21623XXSP,2013-01-20 01:15:00,
2013-01-19 20:20:00,43.3,21.0,29.76,SSW,211,6.7,15.0,41,0.00,,,0.00,WUHU21623XXSP,2013-01-20 01:20:00,
2013-01-19 20:25:00,43.3,21.0,29.76,WSW,254,6.3,12.8,41,0.00,,,0.00,WUHU21623XXSP,2013-01-20 01:25:00,
2013-01-19 20:30:00,43.3,21.0,29.76,SW,216,9.8,16.3,41,0.00,,,0.00,WUHU21623XXSP,2013-01-20 01:30:00,
2013-01-19 20:35:00,43.5,20.6,29.76,SW,236,7.4,16.3,40,0.00,,,0.00,WUHU21623XXSP,2013-01-20 01:35:00,
2013-01-19 20:40:00,43.5,20.6,29.76,WSW,247,10.7,15.7,40,0.00,,,0.00,WUHU21623XXSP,2013-01-20 01:40:00,
2013-01-19 20:45:00,43.7,20.7,29.76,South,180,6.0,14.5,40,0.00,,,0.00,WUHU21623XXSP,2013-01-20 01:45:00,
2013-01-19 20:51:00,43.7,20.7,29.76,SSW,202,8.5,15.0,40,0.00,,,0.00,WUHU21623XXSP,2013-01-20 01:51:00,
2013-01-19 20:56:00,43.7,20.7,29.76,SW,225,16.1,16.1,40,0.00,,,0.00,WUHU21623XXSP,2013-01-20 01:56:00,
2013-01-19 21:01:00,43.9,20.9,29.75,SW,225,5.9,16.1,40,0.00,,,0.00,WUHU21623XXSP,2013-01-20 02:01:00,
2013-01-19 21:06:00,43.9,20.9,29.76,SSE,157,11.9,14.5,40,0.00,,,0.00,WUHU21623XXSP,2013-01-20 02:06:00,
2013-01-19 21:11:00,44.1,21.1,29.75,SW,225,7.2,14.5,40,0.00,,,0.00,WUHU21623XXSP,2013-01-20 02:11:00,
2013-01-19 21:16:00,44.2,21.2,29.75,SW,227,8.0,16.6,40,0.00,,,0.00,WUHU21623XXSP,2013-01-20 02:16:00,
2013-01-19 21:22:00,44.4,20.8,29.75,WSW,247,10.7,21.7,39,0.00,,,0.00,WUHU21623XXSP,2013-01-20 02:22:00,
2013-01-19 21:27:00,44.4,21.4,29.75,WSW,247,7.6,23.9,40,0.00,,,0.00,WUHU21623XXSP,2013-01-20 02:27:00,
2013-01-19 21:32:00,44.6,21.0,29.75,SW,225,8.7,23.9,39,0.00,,,0.00,WUHU21623XXSP,2013-01-20 02:32:00,
2013-01-19 21:37:00,44.6,21.0,29.74,SW,225,8.9,17.9,39,0.00,,,0.00,WUHU21623XXSP,2013-01-20 02:37:00,
2013-01-19 21:42:00,44.8,21.1,29.74,SW,236,8.6,17.7,39,0.00,,,0.00,WUHU21623XXSP,2013-01-20 02:42:00,
2013-01-19 21:47:00,44.6,21.0,29.74,SW,225,8.0,17.7,39,0.00,,,0.00,WUHU21623XXSP,2013-01-20 02:47:00,
2013-01-19 21:53:00,44.8,21.1,29.74,SSW,202,11.6,20.1,39,0.00,,,0.00,WUHU21623XXSP,2013-01-20 02:53:00,
2013-01-19 21:58:00,44.8,21.1,29.74,SW,222,6.9,20.1,39,0.00,,,0.00,WUHU21623XXSP,2013-01-20 02:58:00,
2013-01-19 22:03:00,44.8,21.1,29.74,WSW,240,8.7,16.8,39,0.00,,,0.00,WUHU21623XXSP,2013-01-20 03:03:00,
2013-01-19 22:08:00,44.8,21.1,29.73,SW,225,9.7,18.6,39,0.00,,,0.00,WUHU21623XXSP,2013-01-20 03:08:00,
2013-01-19 22:13:00,44.8,21.1,29.73,SW,217,5.4,17.2,39,0.00,,,0.00,WUHU21623XXSP,2013-01-20 03:13:00,
2013-01-19 22:18:00,44.8,21.1,29.73,WSW,237,8.9,18.6,39,0.00,,,0.00,WUHU21623XXSP,2013-01-20 03:18:00,
2013-01-19 22:24:00,44.8,21.1,29.73,West,270,7.8,18.6,39,0.00,,,0.00,WUHU21623XXSP,2013-01-20 03:24:00,
2013-01-19 22:29:00,44.8,21.1,29.73,SW,225,7.8,15.2,39,0.00,,,0.00,WUHU21623XXSP,2013-01-20 03:29:00,
2013-01-19 22:34:00,44.8,21.1,29.73,WSW,237,5.7,16.8,39,0.00,,,0.00,WUHU21623XXSP,2013-01-20 03:34:00,
2013-01-19 22:39:00,44.8,21.1,29.72,SW,231,6.5,18.1,39,0.00,,,0.00,WUHU21623XXSP,2013-01-20 03:39:00,
2013-01-19 22:44:00,44.8,21.1,29.72,SW,232,8.0,19.5,39,0.00,,,0.00,WUHU21623XXSP,2013-01-20 03:44:00,
2013-01-19 22:49:00,45.0,21.3,29.72,SW,225,5.7,19.5,39,0.00,,,0.00,WUHU21623XXSP,2013-01-20 03:49:00,
2013-01-19 22:54:00,45.0,21.3,29.72,WSW,247,5.6,16.8,39,0.00,,,0.00,WUHU21623XXSP,2013-01-20 03:54:00,
2013-01-19 22:59:00,45.0,21.3,29.71,SSW,202,6.5,16.8,39,0.00,,,0.00,WUHU21623XXSP,2013-01-20 03:59:00,
2013-01-19 23:04:00,44.8,21.1,29.71,SW,225,8.1,14.5,39,0.00,,,0.00,WUHU21623XXSP,2013-01-20 04:04:00,
2013-01-19 23:09:00,44.8,21.1,29.71,South,180,10.7,14.3,39,0.00,,,0.00,WUHU21623XXSP,2013-01-20 04:09:00,
2013-01-19 23:14:00,44.8,21.1,29.71,SW,216,6.9,14.3,39,0.00,,,0.00,WUHU21623XXSP,2013-01-20 04:14:00,
2013-01-19 23:19:00,45.0,21.3,29.71,WSW,247,10.5,13.4,39,0.00,,,0.00,WUHU21623XXSP,2013-01-20 04:19:00,
2013-01-19 23:24:00,45.0,20.7,29.70,SW,226,6.8,12.8,38,0.00,,,0.00,WUHU21623XXSP,2013-01-20 04:24:00,
2013-01-19 23:29:00,44.8,21.1,29.69,SW,224,5.5,12.8,39,0.00,,,0.00,WUHU21623XXSP,2013-01-20 04:29:00,
2013-01-19 23:34:00,44.6,21.0,29.69,West,270,5.8,11.6,39,0.00,,,0.00,WUHU21623XXSP,2013-01-20 04:34:00,
2013-01-19 23:39:00,44.4,20.8,29.69,SSW,202,8.9,18.1,39,0.00,,,0.00,WUHU21623XXSP,2013-01-20 04:39:00,
2013-01-19 23:44:00,44.2,20.6,29.68,SSW,202,8.7,16.3,39,0.00,,,0.00,WUHU21623XXSP,2013-01-20 04:44:00,
2013-01-19 23:49:00,43.7,20.7,29.68,SW,222,5.8,16.3,40,0.00,,,0.00,WUHU21623XXSP,2013-01-20 04:49:00,
2013-01-19 23:54:00,43.3,20.4,29.68,SW,216,5.9,12.5,40,0.00,,,0.00,WUHU21623XXSP,2013-01-20 04:54:00,
2013-01-19 23:59:00,43.0,20.7,29.68,SW,225,10.1,10.5,41,0.00,,,0.00,WUHU21623XXSP,2013-01-20 04:59:00,